Date String (YYYY-MM-DD hh:mm:ss) UTC,Instrument flags,absolute air pressure of the measurement (hPa),sample flow rate (lpm),inlet stack bypass flow (lpm),air temperature of the measurement (°C),ambient temperature measured by the external sensor (°C),aerosol sample conditioner tube jacket temperature (°C),OPC LED temperature (°C),internal box temperature (°C),relative humidity of the measurement (%),span deviation,mass concentration of particles derived from Lorenz-Mie calculation of OPC scattering (μg/m³),mass concentration of particles derived from Lorenz-Mie calculation of OPC scattering (μg/m³),mass concentration of particles derived from Lorenz-Mie calculation of OPC scattering (μg/m³)
DateTimeUTC,F1_M11,P_M11,Q1_M11,Q2_M11,T1_M11,T2_M11,T3_M11,T4_M11,T5_M11,U1_M11,ZSPAN_M11,X0_M11,X2_M11,X1_M11
2023-11-04 20:00:00,SystemResetWarning,0833.4,5.00,000.00,027.8,026.8,000.0,036.0,029.4,14.0,0000.0,0008.48,0002.49,0001.89
2023-11-04 20:01:00,SystemResetWarning,0833.4,4.99,000.00,027.8,026.9,000.0,036.0,029.4,13.8,0000.0,0008.47,0002.44,0001.83
2023-11-04 20:02:00,SystemResetWarning,0833.4,4.99,000.00,027.9,027.0,000.0,036.0,029.5,13.9,0000.0,0007.99,0002.43,0001.80
2023-11-04 20:03:00,SystemResetWarning,0833.4,5.00,000.00,027.9,027.1,000.0,036.0,029.5,13.8,0000.0,0007.12,0002.42,0001.80
2023-11-04 20:04:00,SystemResetWarning,0833.4,5.01,000.00,027.9,027.2,000.0,036.1,029.6,13.8,0000.0,0007.47,0002.42,0001.80
2023-11-04 20:05:00,SystemResetWarning,0833.4,5.01,000.00,028.0,027.3,000.0,036.1,029.6,13.8,0000.0,0007.72,0002.42,0001.78
2023-11-04 20:06:00,SystemResetWarning,0833.4,5.00,000.00,028.0,027.3,000.0,036.1,029.7,13.6,0000.0,0007.46,0002.47,0001.75
2023-11-04 20:07:00,SystemResetWarning,0833.4,5.00,000.00,028.1,027.4,000.0,036.2,029.7,13.7,0000.0,0007.44,0002.45,0001.72
2023-11-04 20:08:00,SystemResetWarning,0833.4,5.00,000.00,028.1,027.5,000.0,036.2,029.8,13.5,0000.0,0007.75,0002.37,0001.70
2023-11-04 20:09:00,SystemResetWarning,0833.4,5.00,000.00,028.2,027.5,000.0,036.2,029.8,13.6,0000.0,0007.76,0002.41,0001.69
2023-11-04 20:10:00,SystemResetWarning,0833.4,4.99,000.00,028.2,027.1,000.0,036.2,029.8,13.4,0000.0,0007.13,0002.42,0001.69
2023-11-04 20:11:00,SystemResetWarning,0833.4,4.99,000.00,028.2,024.9,000.0,036.2,029.5,13.5,0000.0,0007.10,0002.42,0001.68
2023-11-04 20:12:00,SystemResetWarning,0833.3,5.01,000.00,028.0,023.6,000.0,036.1,029.2,13.4,0000.0,0007.05,0002.42,0001.69
2023-11-04 20:13:00,SystemResetWarning,0833.3,5.01,000.00,027.9,023.7,000.0,036.1,028.9,13.4,0000.0,0007.16,0002.44,0001.73
2023-11-04 20:14:00,SystemResetWarning,0833.3,5.00,000.00,027.7,024.1,000.0,036.1,028.6,13.5,0000.0,0007.56,0002.44,0001.76
2023-11-04 20:15:00,SystemResetWarning,0833.3,4.99,000.00,027.6,024.6,000.0,036.0,028.7,13.8,0000.0,0007.63,0002.50,0001.80
2023-11-04 20:16:00,SystemResetWarning,0833.3,5.01,000.00,027.6,025.0,000.0,036.0,028.8,13.7,0000.0,0007.13,0002.52,0001.83
2023-11-04 20:17:00,SystemResetWarning,0833.3,5.02,000.00,027.6,025.4,000.0,036.0,028.9,13.7,0000.0,0007.46,0002.56,0001.87
2023-11-04 20:18:00,SystemResetWarning,0833.2,4.98,000.00,027.6,025.8,000.0,036.0,029.0,13.6,0000.0,0008.25,0002.58,0001.90
2023-11-04 20:19:00,SystemResetWarning,0833.2,5.00,000.00,027.6,026.0,000.0,035.9,029.1,13.6,0000.0,0008.17,0002.65,0001.94
2023-11-04 20:20:00,SystemResetWarning,0833.2,5.01,000.00,027.7,026.3,000.0,035.9,029.2,13.5,0000.0,0008.09,0002.64,0001.97
2023-11-04 20:21:00,SystemResetWarning,0833.3,5.01,000.00,027.7,026.5,000.0,036.0,029.3,13.5,0000.0,0008.09,0002.64,0001.97
2023-11-04 20:22:00,SystemResetWarning,0833.2,4.99,000.00,027.7,026.6,000.0,036.0,029.3,13.4,0000.0,0008.09,0002.63,0001.97
2023-11-04 20:23:00,SystemResetWarning,0833.2,4.99,000.00,027.8,026.8,000.0,036.0,029.4,13.4,0000.0,0009.34,0002.63,0001.97
2023-11-04 20:24:00,SystemResetWarning,0833.2,4.99,000.00,027.8,026.9,000.0,036.0,029.4,13.5,0000.0,0009.74,0002.61,0001.94
2023-11-04 20:25:00,SystemResetWarning,0833.2,5.01,000.00,027.9,027.0,000.0,036.0,029.5,13.5,0000.0,0009.28,0002.60,0001.91
2023-11-04 20:26:00,SystemResetWarning,0833.2,5.01,000.00,027.9,027.1,000.0,036.0,029.5,13.4,0000.0,0009.11,0002.57,0001.87
2023-11-04 20:27:00,SystemResetWarning,0833.2,5.01,000.00,028.0,027.2,000.0,036.1,029.6,13.4,0000.0,0009.03,0002.49,0001.83
2023-11-04 20:28:00,SystemResetWarning,0833.2,5.00,000.00,028.0,027.3,000.0,036.1,029.7,13.3,0000.0,0008.65,0002.39,0001.78
2023-11-04 20:29:00,SystemResetWarning,0833.2,5.00,000.00,028.1,027.3,000.0,036.1,029.7,13.3,0000.0,0007.76,0002.30,0001.74
2023-11-04 20:30:00,SystemResetWarning,0833.2,5.00,000.00,028.1,027.4,000.0,036.2,029.7,13.2,0000.0,0007.68,0002.24,0001.69
2023-11-04 20:31:00,SystemResetWarning,0833.2,5.00,000.00,028.2,027.5,000.0,036.2,029.8,13.2,0000.0,0007.69,0002.21,0001.65
2023-11-04 20:32:00,SystemResetWarning,0833.2,4.99,000.00,028.2,026.8,000.0,036.2,029.8,13.2,0000.0,0008.61,0002.24,0001.64
2023-11-04 20:33:00,SystemResetWarning,0833.2,5.00,000.00,028.1,024.7,000.0,036.2,029.4,13.2,0000.0,0008.79,0002.30,0001.66
2023-11-04 20:34:00,SystemResetWarning,0833.2,5.00,000.00,028.0,023.5,000.0,036.1,029.1,13.5,0000.0,0008.50,0002.28,0001.66
2023-11-04 20:35:00,SystemResetWarning,0833.1,5.02,000.00,027.8,023.7,000.0,036.1,028.8,13.5,0000.0,0007.94,0002.29,0001.66
2023-11-04 20:36:00,SystemResetWarning,0833.1,4.99,000.00,027.7,024.2,000.0,036.0,028.6,13.5,0000.0,0007.77,0002.27,0001.66
2023-11-04 20:37:00,SystemResetWarning,0833.2,5.00,000.00,027.6,024.7,000.0,036.0,028.7,13.5,0000.0,0008.11,0002.30,0001.67
2023-11-04 20:38:00,SystemResetWarning,0833.5,4.99,000.00,027.6,025.1,000.0,036.0,028.8,13.5,0000.0,0008.25,0002.35,0001.71
2023-11-04 20:39:00,SystemResetWarning,0833.2,5.01,000.00,027.6,025.5,000.0,035.9,028.9,13.5,0000.0,0008.46,0002.42,0001.75
2023-11-04 20:40:00,SystemResetWarning,0833.2,4.99,000.00,027.6,025.8,000.0,035.9,029.0,13.6,0000.0,0008.80,0002.55,0001.77
2023-11-04 20:41:00,SystemResetWarning,0833.2,5.00,000.00,027.6,026.0,000.0,035.9,029.1,13.6,0000.0,0008.77,0002.58,0001.79
2023-11-04 20:42:00,SystemResetWarning,0833.1,5.00,000.00,027.6,026.3,000.0,035.9,029.2,13.5,0000.0,0008.63,0002.60,0001.82
2023-11-04 20:43:00,SystemResetWarning,0833.1,5.00,000.00,027.7,026.5,000.0,035.9,029.3,13.5,0000.0,0008.05,0002.58,0001.85
2023-11-04 20:44:00,SystemResetWarning,0833.1,5.00,000.00,027.7,026.6,000.0,035.9,029.3,13.6,0000.0,0007.91,0002.51,0001.85
2023-11-04 20:45:00,SystemResetWarning,0833.1,4.99,000.00,027.8,026.7,000.0,036.0,029.4,13.6,0000.0,0007.78,0002.48,0001.84
2023-11-04 20:46:00,SystemResetWarning,0833.1,5.00,000.00,027.8,026.9,000.0,036.0,029.5,13.6,0000.0,0006.93,0002.49,0001.83
2023-11-04 20:47:00,SystemResetWarning,0833.1,5.00,000.00,027.9,027.0,000.0,036.0,029.5,13.8,0000.0,0007.21,0002.60,0001.84
2023-11-04 20:48:00,SystemResetWarning,0833.2,4.99,000.00,027.9,027.1,000.0,036.0,029.6,13.6,0000.0,0006.56,0002.61,0001.87
2023-11-04 20:49:00,SystemResetWarning,0833.1,5.00,000.00,028.0,027.2,000.0,036.0,029.6,13.6,0000.0,0006.92,0002.60,0001.89
2023-11-04 20:50:00,SystemResetWarning,0833.1,5.00,000.00,028.0,027.3,000.0,036.1,029.7,13.3,0000.0,0007.35,0002.58,0001.90
2023-11-04 20:51:00,SystemResetWarning,0833.2,4.99,000.00,028.1,027.3,000.0,036.1,029.7,13.1,0000.0,0007.09,0002.57,0001.96
2023-11-04 20:52:00,SystemResetWarning,0833.2,5.00,000.00,028.1,027.4,000.0,036.1,029.8,13.1,0000.0,0007.07,0002.64,0002.04
2023-11-04 20:53:00,SystemResetWarning,0833.0,5.01,000.00,028.2,027.5,000.0,036.2,029.8,13.0,0000.0,0007.08,0002.72,0002.10
2023-11-04 20:54:00,SystemResetWarning,0833.2,4.99,000.00,028.2,026.6,000.0,036.2,029.8,12.9,0000.0,0008.55,0002.83,0002.15
2023-11-04 20:55:00,SystemResetWarning,0833.5,4.99,000.00,028.1,024.5,000.0,036.2,029.4,12.9,0000.0,0009.40,0002.98,0002.20
2023-11-04 20:56:00,SystemResetWarning,0833.1,5.02,000.00,027.9,023.7,000.0,036.1,029.1,12.9,0000.0,0009.47,0003.08,0002.26
2023-11-04 20:57:00,SystemResetWarning,0833.1,5.00,000.00,027.8,023.9,000.0,036.1,028.8,13.0,0000.0,0009.64,0003.14,0002.32
2023-11-04 20:58:00,SystemResetWarning,0833.0,5.00,000.00,027.7,024.4,000.0,036.0,028.6,13.1,0000.0,0009.58,0003.12,0002.40
2023-11-04 20:59:00,SystemResetWarning,0833.0,5.00,000.00,027.6,024.9,000.0,036.0,028.8,13.3,0000.0,0009.56,0003.12,0002.43
